When you browse on this site, cookies collect data to enhance your experience and personalize the content and advertising you see.
Visit our Privacy Policy to learn more. By continuing to use the site, you agree to this use of cookies and data.
  • In Hungary
  • List of Countries
  • For 7 days
  • Water Temperature
  • Weather Map
  • News
  • Weather Widgets
  • user-avatar
    Login

    Hourly Weather Yamskaya

    Today, 26 January, Sunday

    Time Temperature Precipitation Wind Pressure Humidity
    00:00 -5°C° 0 mm 5 mps 732 mmHg 78%
    01:00 -5°C° 0 mm 5 mps 733 mmHg 79%
    02:00 -4°C° 0 mm 4 mps 733 mmHg 79%
    03:00 -4°C° 0 mm 4 mps 734 mmHg 80%
    04:00 -4°C° 0 mm 4 mps 735 mmHg 82%
    05:00 -4°C° 0 mm 3 mps 735 mmHg 83%
    06:00 -4°C° 0 mm 3 mps 735 mmHg 84%
    07:00 -5°C° 0 mm 3 mps 735 mmHg 85%
    08:00 -4°C° 0 mm 3 mps 735 mmHg 80%
    09:00 -4°C° 0 mm 3 mps 735 mmHg 79%
    10:00 -3°C° 0 mm 4 mps 735 mmHg 78%
    11:00 -3°C° 0 mm 4 mps 735 mmHg 78%
    12:00 -4°C° 0 mm 5 mps 735 mmHg 78%
    13:00 -2°C° 0 mm 5 mps 734 mmHg 79%
    14:00 -3°C° 0 mm 6 mps 734 mmHg 75%
    15:00 -2°C° 0.3 mm 6 mps 733 mmHg 82%
    16:00 -2°C° 0.3 mm 6 mps 733 mmHg 89%
    17:00 -2°C° 0.3 mm 6 mps 732 mmHg 95%
    18:00 -1°C° 0.1 mm 6 mps 732 mmHg 94%
    19:00 -1°C° 0.1 mm 6 mps 732 mmHg 92%
    20:00 +1°C° 0.1 mm 6 mps 732 mmHg 90%
    21:00 +1°C° 0 mm 6 mps 732 mmHg 90%
    22:00 +1°C° 0 mm 5 mps 733 mmHg 89%
    23:00 +1°C° 0 mm 5 mps 733 mmHg 88%

    Tomorrow, 27 January, Monday

    Time Temperature Precipitation Wind Pressure Humidity
    00:00 0°C° 0 mm 5 mps 733 mmHg 90%
    01:00 0°C° 0 mm 4 mps 734 mmHg 92%
    02:00 0°C° 0 mm 4 mps 734 mmHg 94%
    03:00 +1°C° 0.1 mm 3 mps 734 mmHg 95%
    04:00 +1°C° 0.1 mm 3 mps 735 mmHg 96%
    05:00 +1°C° 0.1 mm 3 mps 735 mmHg 97%
    06:00 +1°C° 0.2 mm 2 mps 735 mmHg 97%
    07:00 +1°C° 0.2 mm 2 mps 736 mmHg 97%
    08:00 +1°C° 0.2 mm 1 mps 736 mmHg 97%
    09:00 +1°C° 0.1 mm 1 mps 736 mmHg 97%
    10:00 +1°C° 0.1 mm 1 mps 737 mmHg 96%
    11:00 -1°C° 0.1 mm 2 mps 737 mmHg 96%
    12:00 -2°C° 0.5 mm 2 mps 737 mmHg 96%
    13:00 -2°C° 0.5 mm 2 mps 737 mmHg 96%
    14:00 -2°C° 0.5 mm 2 mps 737 mmHg 96%
    15:00 -2°C° 0.6 mm 2 mps 737 mmHg 96%
    16:00 -2°C° 0.6 mm 2 mps 737 mmHg 96%
    17:00 -2°C° 0.6 mm 3 mps 737 mmHg 96%
    18:00 -2°C° 0.6 mm 3 mps 736 mmHg 96%
    19:00 -4°C° 0.6 mm 3 mps 736 mmHg 96%
    20:00 -4°C° 0.6 mm 3 mps 736 mmHg 96%
    21:00 -4°C° 0.5 mm 3 mps 736 mmHg 96%
    22:00 -4°C° 0.5 mm 3 mps 736 mmHg 95%
    23:00 -4°C° 0.5 mm 3 mps 736 mmHg 95%

    Day after tomorrow, 28 January, Tuesday

    Time Temperature Precipitation Wind Pressure Humidity
    00:00 -4°C° 0.5 mm 3 mps 735 mmHg 95%
    01:00 -4°C° 0.5 mm 3 mps 735 mmHg 96%
    02:00 -3°C° 0.5 mm 2 mps 735 mmHg 96%
    03:00 -3°C° 0.2 mm 2 mps 735 mmHg 96%
    04:00 -3°C° 0.2 mm 2 mps 734 mmHg 96%
    05:00 -3°C° 0.2 mm 2 mps 734 mmHg 96%
    06:00 -3°C° 0.2 mm 2 mps 734 mmHg 97%
    07:00 -3°C° 0.2 mm 2 mps 734 mmHg 97%
    08:00 -1°C° 0.2 mm 1 mps 734 mmHg 97%
    09:00 -2°C° 0.1 mm 2 mps 734 mmHg 96%
    10:00 -2°C° 0.1 mm 2 mps 734 mmHg 96%
    11:00 -1°C° 0.1 mm 2 mps 734 mmHg 95%
    12:00 -1°C° 0.1 mm 2 mps 734 mmHg 94%
    13:00 -1°C° 0.1 mm 2 mps 734 mmHg 93%
    14:00 -1°C° 0.1 mm 2 mps 733 mmHg 92%
    15:00 -1°C° 0 mm 2 mps 733 mmHg 93%
    16:00 +1°C° 0 mm 1 mps 733 mmHg 94%
    17:00 +1°C° 0 mm 1 mps 733 mmHg 95%
    18:00 +1°C° 0 mm 1 mps 733 mmHg 95%
    19:00 -2°C° 0 mm 2 mps 733 mmHg 95%
    20:00 -2°C° 0 mm 2 mps 734 mmHg 95%
    21:00 -2°C° 0 mm 2 mps 733 mmHg 95%
    22:00 -2°C° 0 mm 2 mps 733 mmHg 94%
    23:00 -2°C° 0 mm 2 mps 733 mmHg 94%

    29 January, Wednesday

    Time Temperature Precipitation Wind Pressure Humidity
    00:00 -2°C° 0 mm 2 mps 733 mmHg 95%
    01:00 -3°C° 0 mm 2 mps 733 mmHg 96%
    02:00 -3°C° 0 mm 2 mps 733 mmHg 97%
    03:00 -3°C° 0 mm 2 mps 732 mmHg 96%
    04:00 -2°C° 0 mm 2 mps 732 mmHg 96%
    05:00 -2°C° 0 mm 2 mps 732 mmHg 96%
    06:00 -2°C° 0 mm 3 mps 732 mmHg 95%
    07:00 -2°C° 0 mm 3 mps 732 mmHg 95%
    08:00 -1°C° 0 mm 3 mps 732 mmHg 94%
    09:00 -1°C° 0 mm 3 mps 732 mmHg 94%
    10:00 -2°C° 0 mm 3 mps 732 mmHg 94%
    11:00 -3°C° 0 mm 4 mps 731 mmHg 94%
    12:00 -3°C° 0 mm 4 mps 731 mmHg 94%
    13:00 -3°C° 0 mm 4 mps 731 mmHg 95%
    14:00 -3°C° 0 mm 4 mps 731 mmHg 95%
    15:00 -3°C° 0 mm 4 mps 731 mmHg 95%
    16:00 -1°C° 0 mm 3 mps 730 mmHg 95%
    17:00 -1°C° 0 mm 3 mps 730 mmHg 94%
    18:00 -2°C° 0 mm 4 mps 730 mmHg 95%
    19:00 -2°C° 0 mm 4 mps 730 mmHg 95%
    20:00 -1°C° 0 mm 4 mps 729 mmHg 96%
    21:00 -1°C° 0.1 mm 4 mps 729 mmHg 96%
    22:00 -1°C° 0.1 mm 4 mps 729 mmHg 96%
    23:00 -1°C° 0.1 mm 4 mps 728 mmHg 96%

    30 January, Thursday

    Time Temperature Precipitation Wind Pressure Humidity
    00:00 -1°C° 0.1 mm 4 mps 728 mmHg 97%
    01:00 -1°C° 0.1 mm 4 mps 727 mmHg 97%
    02:00 -1°C° 0.1 mm 4 mps 727 mmHg 97%
    03:00 -1°C° 0.3 mm 4 mps 727 mmHg 97%
    04:00 -1°C° 0.3 mm 4 mps 726 mmHg 97%
    05:00 -1°C° 0.3 mm 4 mps 726 mmHg 97%
    06:00 -1°C° 0.1 mm 4 mps 726 mmHg 97%
    07:00 0°C° 0.1 mm 4 mps 726 mmHg 97%
    08:00 0°C° 0.1 mm 4 mps 726 mmHg 97%
    09:00 -1°C° 0 mm 4 mps 725 mmHg 97%
    10:00 -1°C° 0 mm 4 mps 725 mmHg 97%
    11:00 -1°C° 0 mm 4 mps 725 mmHg 96%
    12:00 -2°C° 0.1 mm 4 mps 725 mmHg 95%
    13:00 -2°C° 0.1 mm 4 mps 725 mmHg 95%
    14:00 -2°C° 0.1 mm 4 mps 725 mmHg 94%
    15:00 -3°C° 0.3 mm 4 mps 725 mmHg 94%
    16:00 -2°C° 0.3 mm 3 mps 725 mmHg 94%
    17:00 -2°C° 0.3 mm 3 mps 725 mmHg 95%
    18:00 -4°C° 0.1 mm 3 mps 725 mmHg 95%
    19:00 -3°C° 0.1 mm 2 mps 725 mmHg 95%
    20:00 -3°C° 0.1 mm 2 mps 725 mmHg 95%
    21:00 -3°C° 0 mm 2 mps 725 mmHg 95%
    22:00 -3°C° 0 mm 2 mps 726 mmHg 95%
    23:00 -1°C° 0 mm 1 mps 726 mmHg 95%

    31 January, Friday

    Time Temperature Precipitation Wind Pressure Humidity
    00:00 -1°C° 0 mm 1 mps 726 mmHg 95%
    01:00 -1°C° 0 mm 1 mps 726 mmHg 95%
    02:00 -1°C° 0 mm 1 mps 726 mmHg 95%
    03:00 -1°C° 0 mm 1 mps 727 mmHg 94%
    04:00 -1°C° 0 mm 1 mps 727 mmHg 94%
    05:00 0°C° 0 mm 1 mps 727 mmHg 93%
    06:00 -1°C° 0 mm 0 mps 727 mmHg 92%
    07:00 -2°C° 0 mm 0 mps 728 mmHg 92%
    08:00 -2°C° 0 mm 0 mps 728 mmHg 92%
    09:00 -1°C° 0 mm 0 mps 728 mmHg 89%
    10:00 -1°C° 0 mm 0 mps 728 mmHg 87%
    11:00 0°C° 0 mm 0 mps 729 mmHg 84%
    12:00 0°C° 0 mm 0 mps 729 mmHg 84%
    13:00 +1°C° 0 mm 1 mps 729 mmHg 84%
    14:00 +1°C° 0 mm 1 mps 729 mmHg 85%
    15:00 -1°C° 0 mm 0 mps 730 mmHg 88%
    16:00 -1°C° 0 mm 0 mps 730 mmHg 92%
    17:00 -2°C° 0 mm 0 mps 730 mmHg 96%
    18:00 -2°C° 0.1 mm 0 mps 731 mmHg 97%
    19:00 -2°C° 0.1 mm 0 mps 731 mmHg 97%
    20:00 -2°C° 0.1 mm 0 mps 731 mmHg 97%
    21:00 -2°C° 0.1 mm 0 mps 732 mmHg 97%
    22:00 -2°C° 0.1 mm 0 mps 732 mmHg 97%
    23:00 -1°C° 0.1 mm 1 mps 732 mmHg 97%
    Show more